Location: *
(41.7492°S, 135.4150°W)
Time: 17:12:57
(UTC+00:00)

Milstar 3 - Pass Details

Date: 20 September 2021
Orbit: 1090 x 5155 km, 28.2° (Epoch: 17 September)

Event Time Altitude Azimuth Distance (km) Brightness Sun altitude
Exits shadow 13:20:41 19° 315° (NW) 2,887 4.4 -18.0°
Maximum altitude 13:25:00 30° 359° (N) 2,062 4.0 -17.2°
Drops below altitude 10° 13:30:45 10° 58° (ENE) 2,951 5.6 -16.2°
Sets 13:33:37 0° 70° (ENE) 3,903 6.6 -15.6°
